TimeCDT,TemperatureF,Dew PointF,Humidity,Sea Level PressureIn,VisibilityMPH,Wind Direction,Wind SpeedMPH,Gust SpeedMPH,PrecipitationIn,Events,Conditions,WindDirDegrees,DateUTC
12:53 AM,39.0,28.9,67,30.15,10.0,SSW,4.6,-,N/A,,Clear,200,2012-10-08 05:53:00
1:53 AM,37.9,28.9,70,30.16,10.0,SSW,3.5,-,N/A,,Clear,200,2012-10-08 06:53:00
2:53 AM,36.0,28.9,76,30.15,10.0,South,3.5,-,N/A,,Clear,190,2012-10-08 07:53:00
3:53 AM,34.0,28.0,79,30.14,10.0,South,3.5,-,N/A,,Clear,180,2012-10-08 08:53:00
4:53 AM,34.0,28.0,79,30.13,10.0,South,4.6,-,N/A,,Clear,190,2012-10-08 09:53:00
5:53 AM,32.0,28.0,85,30.14,10.0,South,3.5,-,N/A,,Clear,180,2012-10-08 10:53:00
6:53 AM,32.0,27.0,82,30.14,10.0,South,4.6,-,N/A,,Clear,170,2012-10-08 11:53:00
7:53 AM,34.0,28.9,82,30.14,10.0,South,5.8,-,N/A,,Clear,190,2012-10-08 12:53:00
8:53 AM,39.0,30.9,73,30.14,10.0,SSW,8.1,-,N/A,,Clear,200,2012-10-08 13:53:00
9:53 AM,46.0,33.1,61,30.14,10.0,SSW,10.4,-,N/A,,Clear,210,2012-10-08 14:53:00
10:53 AM,51.1,33.1,50,30.12,10.0,SW,10.4,19.6,N/A,,Clear,220,2012-10-08 15:53:00
11:53 AM,55.9,32.0,40,30.10,10.0,SSW,15.0,23.0,N/A,,Clear,200,2012-10-08 16:53:00
12:53 PM,57.9,32.0,37,30.08,10.0,South,12.7,28.8,N/A,,Clear,190,2012-10-08 17:53:00
1:53 PM,59.0,33.1,38,30.05,10.0,SSW,18.4,28.8,N/A,,Clear,210,2012-10-08 18:53:00
2:53 PM,60.1,33.1,36,30.02,10.0,SW,16.1,23.0,N/A,,Clear,220,2012-10-08 19:53:00
3:53 PM,60.1,35.1,39,29.99,10.0,SW,15.0,25.3,N/A,,Clear,220,2012-10-08 20:53:00
4:53 PM,60.1,35.1,39,29.98,10.0,South,15.0,26.5,N/A,,Clear,190,2012-10-08 21:53:00
5:53 PM,59.0,34.0,39,29.98,10.0,South,11.5,19.6,N/A,,Clear,180,2012-10-08 22:53:00
6:53 PM,55.0,35.1,47,29.98,10.0,South,9.2,-,N/A,,Clear,180,2012-10-08 23:53:00
7:53 PM,51.1,35.1,54,29.99,10.0,South,9.2,-,N/A,,Clear,180,2012-10-09 00:53:00
8:53 PM,51.1,35.1,54,29.99,10.0,South,10.4,-,N/A,,Clear,180,2012-10-09 01:53:00
9:53 PM,48.9,36.0,61,29.99,10.0,South,8.1,-,N/A,,Clear,180,2012-10-09 02:53:00
10:53 PM,50.0,37.0,61,29.99,10.0,South,12.7,-,N/A,,Clear,190,2012-10-09 03:53:00